map of BAU home
BAU - Airport
Location
City:  Bauru, São Paulo, Brazil
ICAO:SBBU
IATA:BAU

Details
Type:Airport (Aerodrome, Airfield)
Latitude:22°20'42"S (-22.345041)
Longitude:49°03'14"W (-49.053799)
Datum:WGS 1984
Elevation:2025 ft (617 m)
Variation:20.52°W (WMM2015v2 magnetic declination)
-0.12° annual change
Runways:1
Longest:4925 × 115 ft (1501 × 35 m), paved

Time
Time Zone:UTC-3 (DST-2)
Local Time:

Weather
METAR:SBBU 041400Z 06009KT 9999 BKN030 26/22 Q1019
TAF:SBBU 040830Z 0412/0424 12008KT 9999 SCT040 TN26/0412Z TX33/0418Z
BECMG 0422/0424 CAVOK
RMK PER

Related Locations
Nearby:
Farthest:MMD: 12188 mi / 19615 km
Minamidaito [Minami Daito Airport], Minamidaito Jima, 47, JP

Find:

   beyond  
but within

Other Information
Maps:
NOTAMs:
Links:
Sources:

  
  • flag of Brazil
  • flag of São Paulo
  • flag of Bauru
  

Sectional Chart

Flight Planning
at skyvector.com

Satellite Image

Google Maps Satellite view

 

Copyright © 2004-2019 Karl L. Swartz. All rights reserved.
The Great Circle Mapper name and logo are trademarks of the Great Circle Mapper.
All other trademarks mentioned herein belong to their respective owners.
Please see credits for attibutions and further copyright information.

  Follow gcmap on Facebook Follow gcmap on Twitter GCmap on LinkedIn

hCard Microformat

Geo Microformat